Regional Weather Roundup
Issued by NWS

Home | Current Version | Previous Version | Graphics & Text | Print | Product List | Glossary On
Versions: 1 2 3 4 5 6 7 8 9 10 11 12 13 14 15 16 17 18 19 20 21 22 23 24 25 26 27 28 29 30 31 32 33 34 35 36 37 38 39 40 41 42 43 44 45 46 47 48 49 50
000
ASUS43 KLMK 200402
RWRKY
KENTUCKY REGIONAL WEATHER ROUNDUP
NATIONAL WEATHER SERVICE LOUISVILLE KY
1200 AM EDT SUN MAY 20 2018

NOTE "FAIR" INDICATES FEW OR NO CLOUDS BELOW 12,000 FEET
WITH NO SIGNIFICANT WEATHER AND/OR OBSTRUCTIONS TO VISIBILITY.

KYZ001>023-026-027-061>063-070>075-200500-
WESTERN AND SOUTH CENTRAL KENTUCKY

CITY           SKY/WX    TMP DP  RH WIND       PRES   REMARKS
PADUCAH        FAIR      67  65  93 N5        30.00R
HENDERSON      NOT AVBL
OWENSBORO      FAIR      73  66  78 W8        30.01R
HOPKINSVILLE   FAIR      67  67 100 CALM      29.99F
BOWLING GREEN  FAIR      73  66  78 SW7       30.00R
GLASGOW        NOT AVBL
$$

KYZ024-025-028>034-038-045-046-053-200500-
NORTH CENTRAL KENTUCKY

CITY           SKY/WX    TMP DP  RH WIND       PRES   REMARKS
LOUISVILLE/SDF CLOUDY    74  65  73 SE3       29.99R
LOUISVILLE/LOU FAIR      69  67  93 CALM      30.00R
FORT KNOX      FAIR      66  66 100 CALM      30.01S
$$

KYZ035>037-039>044-047>052-055>060-089>105-200500-
NORTHEAST KENTUCKY

CITY           SKY/WX    TMP DP  RH WIND       PRES   REMARKS
LEXINGTON      FAIR      69  65  86 S6        30.03F
COVINGTON      FAIR      68  66  93 S7        30.01R
FRANKFORT      FAIR      69  64  84 CALM      30.01R
$$

KYZ054-064>069-076>088-106>120-200500-
SOUTHEAST KENTUCKY

CITY           SKY/WX    TMP DP  RH WIND       PRES   REMARKS
JACKSON        FAIR      67  65  93 S3        30.08R
LONDON         FAIR      66  66 100 CALM      30.08S FOG
SOMERSET       NOT AVBL
MIDDLESBORO    CLOUDY    67  67 100 CALM      30.12R
MONTICELLO     FOG       66  66 100 W12       30.07F VSB 1/4
$$




USA.gov is the U.S. government's official web portal to all federal, state and local government web resources and services.